sat.trackr.live / text

‹ back to catalog

STARLINK-3079

NORAD 49433 · 2021-104AB

PAYLOAD ACTIVE UNKNOWN

§ Identity

Operator
Country
US
Launch date
2021-11-13
Launch site
AFETR
Launch vehicle
Mass (kg)
RCS (m²)

Purposes: comms

External: N2YO · Heavens-Above · Gunter

§ Orbital elements

Epoch: 2026-09-11T20:43:54.729696Z

Period
93.90 min
Inclination
53.1607°
Eccentricity
0.0001236
Mean motion
15.33546417 rev/d
Perigee alt
464.4 km
Apogee alt
466.1 km
Semi-major
6,843.4 km
B*
4.3659e-5
RAAN
90.2665°
Arg perigee
101.1301°
Mean anomaly
258.9841°
Rev number
26,814

§ Raw data

STARLINK-30791 49433U 21104AB  26254.86382789  .00001063  00000+0  43659-4 0  99912 49433  53.1607  90.2665 0001236 101.1301 258.9841 15.33546417268141

JSON: /api/v1/satellites/49433 · /tle

For live sub-satellite position, see the globe view (requires WebGL).

§ Visibility from observer

Set your observer location to see the next 7 days of passes ≥ 10°. The values pass through the URL so the page stays shareable.

No JS? Fill the form by hand. The geolocation button needs JavaScript.